Weather History for Billings, MT

Change the Weather History Date:

Wednesday, April 17, 2013

  Actual Average Record
Temperature  
Mean Temperature 25 °F 46 °F  
Max Temperature 33 °F 58 °F 84 °F (1987)
Min Temperature 16 °F 35 °F 16 °F (2013)
Degree Days  
Heating Degree Days 40 19  
Month to date heating degree days 452 354  
Since 1 July heating degree days 5855 6164  
Cooling Degree Days 0 0  
Month to date cooling degree days 0 0  
Year to date cooling degree days 0 0  
Moisture  
Dew Point 20 °F    
Average Humidity 75    
Maximum Humidity 92    
Minimum Humidity 58    
Precipitation  
Precipitation 0.01 in 0.05 in 1.33 in (1941)
Month to date precipitation 0.75 0.88  
Year to date precipitation 1.89 2.90  
Snow  
Snow 0.10 in 0.30 in 16.00 in (1941)
Month to date snowfall 3.7 5.4  
Since 1 July snowfall 38.5 50.1  
Snow Depth T in    
Sea Level Pressure  
Sea Level Pressure 30.34 in    
Wind  
Wind Speed 6 mph (North)    
Max Wind Speed 17 mph    
Max Gust Speed 22 mph    
Visibility 8 miles    
Events Fog , Snow    
T = Trace of Precipitation, MM = Missing Value Source: NWS Daily Summary

Daily Weather History Graph

Daily Weather History Graph

Search for Another Location

Airport:

Trip Planner

Search our weather history database for the weather conditions in past years. The results will help you decide how hot, cold, wet, or windy it might be!

Date:

Astronomy

Apr. 17, 2013 Rise Set
Actual Time 6:24 AM MDT 8:03 PM MDT
Civil Twilight 5:52 AM MDT 8:35 PM MDT
Nautical Twilight 5:14 AM MDT 9:13 PM MDT
Astronomical Twilight 4:33 AM MDT 9:55 PM MDT
Moon 11:35 AM MDT (4/17) 1:50 AM MDT (4/17)
Length of Visible Light 14h 42m
Length of Day
13h 39m
Waxing Crescent, 43% of the Moon is Illuminated
Apr 17
Waxing Crescent
Apr 18
First Quarter
Apr 25
Full
May 2
Last Quarter
May 9
New

Hourly Weather History & Observations

Time (MDT) Temp. Windchill Dew Point Humidity Pressure Visibility Wind Dir Wind Speed Gust Speed Precip Events Conditions
12:53 AM 23.0 °F 17.0 °F 19.9 °F 88% 30.39 in 9.0 mi NE 4.6 mph - 0.00 in Snow Light Snow
1:53 AM 21.0 °F 14.6 °F 18.0 °F 88% 30.38 in 10.0 mi NE 4.6 mph - 0.00 in   Partly Cloudy
2:53 AM 19.0 °F - 17.1 °F 92% 30.38 in 10.0 mi Calm Calm - N/A   Partly Cloudy
3:53 AM 17.1 °F 11.7 °F 15.1 °F 92% 30.38 in 10.0 mi NW 3.5 mph - N/A   Partly Cloudy
4:53 AM 18.0 °F 8.7 °F 15.1 °F 88% 30.38 in 10.0 mi NW 6.9 mph - N/A   Partly Cloudy
5:53 AM 19.0 °F - 16.0 °F 88% 30.38 in 10.0 mi Calm Calm - N/A Fog Partly Cloudy
6:53 AM 19.9 °F - 19.0 °F 96% 30.38 in 7.0 mi Calm Calm - 0.00 in Fog , Snow Light Snow
6:59 AM 19.9 °F - 19.0 °F 96% 30.25 in 5.0 mi Calm Calm - 0.00 in Snow Light Snow
7:22 AM 21.0 °F - 19.0 °F 92% 30.25 in 6.0 mi Calm Calm - 0.00 in Snow Light Snow
7:53 AM 21.2 °F 13.6 °F 19.4 °F 93% 30.26 in 8.0 mi North 5.8 mph - N/A Fog , Snow Light Snow
8:34 AM 23.0 °F 17.0 °F 19.9 °F 88% 30.27 in 2.0 mi NNE 4.6 mph - 0.00 in Snow Light Snow
8:39 AM 24.1 °F 18.2 °F 19.9 °F 84% 30.26 in 2.0 mi North 4.6 mph - 0.00 in Snow Light Snow
8:53 AM 24.1 °F 18.2 °F 19.9 °F 84% 30.39 in 2.0 mi NNE 4.6 mph - 0.01 in Snow Light Snow
8:58 AM 24.1 °F 19.7 °F 19.9 °F 84% 30.26 in 3.0 mi NNE 3.5 mph - 0.00 in Snow Light Snow
9:53 AM 26.1 °F 17.6 °F 21.0 °F 81% 30.39 in 9.0 mi NW 8.1 mph - 0.00 in Snow Light Snow
10:53 AM 28.0 °F 21.7 °F 19.0 °F 69% 30.38 in 10.0 mi Variable 5.8 mph - 0.00 in   Mostly Cloudy
11:44 AM 30.0 °F 21.7 °F 17.1 °F 59% 30.26 in 10.0 mi North 9.2 mph - N/A   Mostly Cloudy
11:53 AM 28.0 °F 20.0 °F 17.1 °F 63% 30.38 in 10.0 mi North 8.1 mph - N/A   Mostly Cloudy
12:23 PM 28.0 °F 22.8 °F 17.1 °F 63% 30.26 in 9.0 mi NW 4.6 mph - 0.00 in Snow Light Snow
12:53 PM 28.0 °F 20.8 °F 19.0 °F 69% 30.37 in 5.0 mi North 6.9 mph - 0.00 in Snow Light Snow
1:01 PM 30.0 °F 23.2 °F 19.0 °F 64% 30.24 in 10.0 mi North 6.9 mph - 0.00 in Snow Light Snow
1:53 PM 30.0 °F 23.2 °F 21.0 °F 69% 30.36 in 10.0 mi NNW 6.9 mph - 0.00 in Snow Light Snow
2:41 PM 30.0 °F 20.0 °F 21.0 °F 69% 30.24 in 1.5 mi NNE 12.7 mph 16.1 mph 0.00 in Snow Light Snow
2:53 PM 30.0 °F 21.1 °F 25.0 °F 82% 30.37 in 3.0 mi NE 10.4 mph - 0.00 in Snow Light Snow
3:53 PM 30.9 °F 20.2 °F 21.0 °F 67% 30.37 in 10.0 mi NNE 15.0 mph 23.0 mph 0.00 in   Mostly Cloudy
3:59 PM 30.0 °F 19.5 °F 21.9 °F 72% 30.24 in 2.0 mi North 13.8 mph - 0.00 in Snow Light Snow
4:07 PM 28.9 °F 20.4 °F 21.0 °F 72% 30.24 in 6.0 mi North 9.2 mph - 0.00 in Snow Light Snow
4:36 PM 28.0 °F 18.1 °F 24.1 °F 85% 30.25 in 1.5 mi NW 11.5 mph - 0.00 in Snow Light Snow
4:44 PM 28.0 °F 19.3 °F 25.0 °F 88% 30.25 in 1.0 mi NW 9.2 mph - 0.00 in Snow Light Snow
4:53 PM 28.9 °F 22.8 °F 24.1 °F 82% 30.38 in 9.0 mi NNW 5.8 mph - 0.00 in   Scattered Clouds
5:53 PM 30.9 °F 26.2 °F 18.0 °F 59% 30.38 in 10.0 mi NNE 4.6 mph - N/A   Scattered Clouds
6:53 PM 30.0 °F 21.7 °F 21.0 °F 69% 30.38 in 10.0 mi NE 9.2 mph - N/A   Mostly Cloudy
7:53 PM 28.0 °F 24.2 °F 21.0 °F 75% 30.38 in 10.0 mi North 3.5 mph - N/A   Scattered Clouds
8:53 PM 28.0 °F - 21.9 °F 78% 30.39 in 10.0 mi Calm Calm - N/A   Scattered Clouds
9:53 PM 26.1 °F - 21.0 °F 81% 30.39 in 10.0 mi Calm Calm - N/A   Scattered Clouds
10:53 PM 25.0 °F 16.3 °F 21.9 °F 88% 30.38 in 10.0 mi SW 8.1 mph - N/A   Partly Cloudy
11:53 PM 25.0 °F 16.3 °F 21.9 °F 88% 30.35 in 10.0 mi WSW 8.1 mph - N/A   Clear